Location: Palo Alto
(37.4420°N, 122.1420°W)
Time: 10:41:26
(UTC-08:00)

ISS - All Passes

Search period start: 23 November 2014 00:00
Search period end: 03 December 2014 00:00
Orbit: 408 x 417 km, 51.6° (Epoch: 23 November)

Date Brightness Start Highest point End Pass type
(mag) Time Alt. Az. Time Alt. Az. Time Alt. Az.
23 Nov - 00:30:02 10° SW 00:33:19 83° NW 00:36:37 10° NE night (unlit)
23 Nov - 02:08:33 10° WNW 02:10:24 14° NNW 02:12:15 10° NNE night (unlit)
23 Nov - 05:25:05 10° N 05:26:16 11° NNE 05:27:26 10° NE visible
23 Nov - 07:00:18 10° NW 07:03:32 51° NE 07:06:46 10° ESE daylight
23 Nov - 08:38:03 10° W 08:39:52 14° SW 08:41:40 10° SSW daylight
23 Nov - 23:40:28 10° SSW 23:43:38 49° SE 23:46:50 10° ENE night (unlit)
24 Nov - 01:17:57 10° WNW 01:20:28 20° NNW 01:22:59 10° NNE night (unlit)
24 Nov - 06:10:46 10° NNW 06:13:43 30° NNE 06:16:40 10° E visible
24 Nov - 07:47:29 10° WNW 07:50:18 26° SW 07:53:06 10° S daylight
24 Nov - 22:51:14 10° S 22:53:59 25° SE 22:56:44 10° ENE night (unlit)
25 Nov - 00:27:35 10° W 00:30:32 30° NNW 00:33:30 10° NNE night (unlit)
25 Nov - 05:21:17 10° NNW 05:23:47 19° NNE 05:26:16 10° ENE visible
25 Nov - 06:57:24 10° WNW 07:00:37 51° SW 07:03:50 10° SSE daylight
25 Nov - 22:02:41 10° SSE 22:04:20 13° SE 22:06:00 10° E night (unlit)
25 Nov - 23:37:25 10° WSW 23:40:38 53° NW 23:43:52 10° NE night (unlit)
26 Nov - 01:16:40 10° NW 01:17:53 12° NNW 01:19:07 10° N night (unlit)
26 Nov - 04:31:55 10° N 04:33:43 14° NNE 04:35:32 10° NE visible
26 Nov - 06:07:31 10° NW 06:10:49 79° NE 06:14:07 10° SE visible
26 Nov - 22:47:29 10° SW 22:50:45 79° SE 22:54:03 10° NE night (unlit)
27 Nov - 00:25:39 10° WNW 00:27:45 16° NNW 00:29:51 10° NNE night (unlit)
27 Nov - 03:42:55 10° N 03:43:33 10° NNE 03:44:12 10° NNE visible
27 Nov - 05:17:44 10° NW 05:20:54 41° NE 05:24:03 10° ESE visible
27 Nov - 06:55:02 10° W 06:57:18 17° SW 06:59:32 10° S daylight
27 Nov - 21:57:49 10° SSW 22:00:54 38° SE 22:03:59 10° ENE night (unlit)
27 Nov - 23:34:56 10° W 23:37:37 23° NNW 23:40:19 10° NNE night (unlit)
28 Nov - 04:28:02 10° NNW 04:30:51 25° NNE 04:33:39 10° E visible
28 Nov - 06:04:31 10° WNW 06:07:30 32° SW 06:10:29 10° SSE visible
28 Nov - 21:08:35 10° S 21:11:04 20° SE 21:13:33 10° E night (unlit)
28 Nov - 22:44:26 10° WSW 22:47:31 36° NW 22:50:36 10° NE night (unlit)
29 Nov - 03:38:24 10° NNW 03:40:41 17° NNE 03:42:57 10° ENE visible
29 Nov - 05:14:19 10° NW 05:17:36 66° SW 05:20:51 10° SE visible
29 Nov - 20:20:36 10° SE 20:21:14 10° SE 20:21:52 10° ESE night (unlit)
29 Nov - 21:54:10 10° WSW 21:57:26 67° NW 22:00:43 10° NE night (unlit)
29 Nov - 23:32:59 10° NW 23:34:35 13° NNW 23:36:10 10° N night (unlit)
30 Nov - 02:48:54 10° N 02:50:23 12° NNE 02:51:52 10° NE night (unlit)
30 Nov - 04:24:18 10° NW 04:27:34 62° NE 04:30:49 10° ESE visible
30 Nov - 06:02:40 10° WSW 06:03:47 11° SW 06:04:54 10° SSW visible
30 Nov - 21:04:08 10° SW 21:07:22 61° SE 21:10:38 10° ENE night (unlit)
30 Nov - 22:41:55 10° WNW 22:44:15 18° NNW 22:46:36 10° NNE night (unlit)
01 Dec - 03:34:22 10° NW 03:37:25 34° NNE 03:40:27 10° E night (unlit)
01 Dec - 05:11:17 10° W 05:13:53 22° SW 05:16:28 10° S visible
01 Dec - 20:14:25 10° SSW 20:17:20 30° SE 20:20:16 10° ENE night (unlit)
01 Dec - 21:51:05 10° W 21:53:57 27° NNW 21:56:48 10° NNE night (unlit)
02 Dec - 02:44:30 10° NNW 02:47:08 22° NNE 02:49:45 10° E night (unlit)
02 Dec - 04:20:44 10° WNW 04:23:52 42° SW 04:26:59 10° SSE visible
02 Dec - 19:25:15 10° SSE 19:27:19 16° SE 19:29:24 10° E night (unlit)
02 Dec - 21:00:29 10° WSW 21:03:40 45° NW 21:06:51 10° NE night (unlit)
02 Dec - 22:40:05 10° NNW 22:40:57 11° NNW 22:41:50 10° N night (unlit)
